GEFSGL_500_meanwind_222.txt.gz
Wind_Speed
11 11 11 11 11 11 11 11 11 11 11 12 11 11 11 12 12 12 12 12 12 13 14 14 15 15 15 16 16 16 16 17 17 18 19 19 20 20 20 20 20 20 20
14 13 13 12 12 12 12 12 12 12 12 12 12 12 12 13 13 13 13 13 13 13 14 14 15 15 15 15 15 16 16 17 17 18 19 20 21 21 22 21 22 22 22
14 14 13 13 13 13 13 13 13 13 14 14 13 13 13 14 15 15 15 15 15 15 15 15 15 15 15 15 16 16 17 18 19 19 20 21 21 21 22 22 22 23 23
16 15 14 15 15 15 14 14 14 14 15 15 15 14 14 15 16 16 16 15 16 16 16 16 16 16 16 16 17 17 18 19 19 19 20 22 22 22 22 23 23 23 24
16 16 16 15 15 15 15 15 16 15 16 15 16 16 16 16 16 15 15 15 16 16 16 17 17 17 17 18 18 19 19 20 20 21 22 22 23 23 23 24 25 25 26
17 17 17 17 16 17 17 17 17 17 17 17 16 17 16 16 17 17 18 17 17 17 17 17 17 18 18 19 19 20 20 20 21 22 23 23 23 24 25 26 26 27 28
19 18 18 18 18 18 19 18 18 18 18 18 18 18 18 18 19 19 19 19 19 19 19 19 19 19 19 20 21 21 22 22 23 24 24 25 25 26 26 27 27 28 29
20 20 19 20 21 21 20 20 20 19 20 20 20 19 19 20 20 21 21 20 20 21 21 21 22 22 22 22 22 23 24 25 26 26 26 26 27 28 28 28 29 30 31
22 22 21 22 23 22 22 22 22 21 21 21 22 21 21 21 21 21 22 22 22 23 24 24 24 24 24 24 24 25 26 27 27 27 26 27 28 29 29 30 31 32 32
23 22 23 23 24 24 23 24 23 23 22 22 23 23 23 23 23 24 24 25 25 26 26 26 26 26 26 26 26 27 28 28 28 28 27 28 29 29 31 31 33 33 33
25 25 25 26 26 25 23 24 24 24 24 24 24 24 24 25 25 25 26 26 27 27 27 27 26 27 27 27 27 28 28 28 28 29 29 30 30 31 32 33 34 34 34
26 27 27 28 28 26 25 25 26 26 26 25 25 25 25 25 25 26 26 26 27 28 27 26 26 26 27 27 28 28 28 28 29 29 30 31 32 33 34 34 35 35 35
26 28 28 27 27 26 26 27 27 27 27 26 26 25 24 24 24 25 26 27 27 26 25 25 26 26 27 28 28 29 29 30 30 30 31 32 33 34 35 35 36 37 37
26 27 27 26 26 26 26 26 26 26 26 25 25 25 25 25 25 25 26 26 27 27 26 26 26 27 28 28 29 30 31 31 31 32 32 33 34 35 36 36 36 37 38
25 24 24 24 24 25 25 26 26 25 25 25 26 26 26 26 26 26 26 27 27 26 26 26 27 28 29 29 30 31 31 31 32 33 33 34 35 35 36 37 38 39 39
23 23 22 22 24 24 24 24 24 24 24 25 25 26 25 26 26 27 27 27 26 27 27 27 27 28 29 29 30 31 32 32 33 34 34 35 35 35 36 37 38 38 39
21 22 22 23 23 23 23 23 24 24 24 24 25 26 26 26 26 26 26 26 26 27 27 27 28 29 29 29 30 31 31 32 33 33 35 35 35 36 37 37 38 38 39
22 22 22 22 22 22 22 23 23 23 23 24 24 25 25 25 25 25 25 26 26 27 27 28 28 29 29 30 30 31 31 32 33 33 34 35 35 36 37 37 38 38 39
22 22 22 22 22 22 22 22 22 23 23 24 24 24 24 25 25 25 25 25 26 26 27 28 29 30 30 30 31 32 32 33 33 34 34 34 35 36 36 37 37 38 38
21 20 20 20 20 21 21 21 22 23 23 24 24 24 24 25 25 26 26 26 26 27 27 28 29 30 30 30 31 32 32 32 33 33 34 35 35 36 36 37 37 37 37
19 19 19 19 20 21 21 22 23 23 23 23 24 24 25 25 26 26 27 27 27 27 28 29 29 30 30 30 30 31 31 32 33 34 34 35 36 36 37 37 37 37 36
19 19 19 20 21 21 21 22 22 22 22 23 24 25 26 26 26 27 27 27 28 29 29 30 31 31 31 31 31 32 32 33 34 35 36 36 36 37 37 36 36 35 35
19 19 19 19 20 20 21 21 22 22 23 24 25 25 26 26 26 27 28 28 29 29 30 30 31 31 31 31 32 32 33 34 34 35 35 35 36 35 35 35 34 34 34
18 18 18 19 19 20 21 22 22 23 24 24 25 26 26 27 27 27 28 28 29 30 30 31 31 32 32 31 32 32 32 33 33 33 33 33 33 33 33 33 32 32 33
18 18 18 19 20 20 21 22 23 23 24 25 26 26 27 27 28 28 28 28 29 29 30 30 30 30 30 30 30 31 32 32 32 32 32 32 32 32 32 32 32 32 32
18 19 19 19 20 21 22 22 23 24 25 26 26 26 27 27 27 27 27 28 28 29 30 29 29 29 29 29 30 30 30 31 31 31 31 32 32 31 31 31 31 31 31

GEFSGL_500_meanwind_228.txt.gz
Wind_Speed
13 13 13 13 12 12 12 12 12 12 12 12 13 12 12 12 12 12 12 13 13 13 14 15 16 16 16 17 17 16 17 18 18 18 19 20 21 21 21 21 21 21 21
15 13 13 13 13 14 14 13 13 13 13 13 14 14 13 13 13 13 13 13 14 15 16 17 17 16 16 17 17 16 17 17 18 19 19 20 21 21 22 22 22 22 22
16 15 15 15 16 16 16 15 14 14 14 15 15 16 16 15 15 14 14 14 14 15 16 17 17 17 17 17 17 17 18 18 19 20 21 21 22 22 22 23 23 23 24
16 16 17 18 18 19 17 16 15 15 15 16 16 17 17 16 15 15 15 15 16 17 17 17 17 17 18 18 18 19 19 20 21 22 22 23 23 23 23 24 24 25 26
17 17 18 19 19 18 17 17 16 16 16 17 17 18 18 17 16 17 17 18 18 18 18 19 19 19 20 20 20 20 21 22 22 23 24 24 24 24 24 25 26 26 27
19 19 19 18 17 17 17 17 17 17 17 17 18 18 18 18 18 18 19 19 19 19 20 20 21 21 22 22 23 23 24 24 25 25 25 25 25 25 26 26 27 27 28
20 20 20 19 18 19 18 18 18 18 19 19 19 19 20 19 20 21 21 21 21 21 22 22 22 23 24 25 25 25 26 26 26 26 26 27 27 27 27 28 28 28 29
20 21 21 20 19 19 19 19 19 20 21 21 21 22 22 22 22 23 23 24 23 23 23 24 25 25 27 27 28 28 28 28 28 28 29 29 29 29 28 28 29 29 30
22 22 22 21 20 20 21 21 21 22 23 23 23 24 24 24 24 24 25 25 24 25 25 26 26 27 28 29 29 29 29 29 30 30 31 31 30 30 30 30 30 30 31
24 23 23 22 22 22 22 22 23 24 24 24 25 25 25 25 25 26 27 27 27 27 27 28 28 29 29 29 29 29 29 30 30 31 31 31 31 30 31 31 32 32 32
23 24 24 23 23 23 23 23 23 24 24 24 25 25 26 26 26 27 28 29 29 29 29 29 29 29 29 30 30 29 29 30 30 31 32 31 31 32 32 32 32 33 33
25 25 24 24 24 24 24 24 24 24 24 24 25 26 26 26 27 27 27 27 28 28 29 29 29 29 29 29 29 30 30 31 31 31 32 32 32 33 33 32 33 33 34
24 24 24 24 24 24 24 25 24 24 24 24 25 25 26 26 26 27 27 27 27 28 29 29 29 30 30 30 30 31 31 31 31 31 31 32 33 33 33 33 34 34 34
25 25 25 24 24 24 24 24 25 25 25 25 25 25 26 26 27 27 26 27 28 29 28 29 29 29 29 29 29 29 30 31 31 31 31 31 32 32 33 34 34 34 35
25 24 24 24 24 23 23 24 24 25 25 25 24 25 26 26 26 27 27 28 28 29 28 28 27 27 28 28 28 28 29 29 30 30 30 30 31 32 33 33 34 35 36
24 24 24 24 22 22 22 23 23 23 24 25 25 25 25 26 26 26 26 27 27 27 27 27 27 27 28 28 29 29 29 29 29 30 30 30 31 32 33 33 34 35 35
24 24 23 22 22 22 22 23 23 23 23 23 24 24 25 26 26 26 26 26 27 27 26 27 28 28 28 28 28 29 29 29 30 30 31 32 32 33 33 33 34 35 35
23 22 21 22 22 22 22 23 23 23 22 23 24 25 25 25 25 25 25 27 27 27 27 27 28 28 28 29 29 30 30 30 30 31 31 32 32 33 33 34 34 35 35
21 21 21 21 21 22 22 22 23 23 23 23 24 24 24 24 24 25 26 27 27 27 27 28 28 29 29 30 31 30 30 31 31 31 32 33 33 34 34 35 35 35 35
21 21 21 21 21 21 22 22 22 23 23 24 24 24 25 25 25 25 26 27 27 27 27 28 28 29 30 30 30 31 31 31 32 32 33 33 34 34 35 35 35 35 35
20 21 21 21 21 21 21 21 22 23 23 24 24 24 25 25 25 25 26 26 27 27 28 28 29 30 30 30 30 31 31 32 32 33 33 33 33 34 34 33 34 33 33
20 20 21 20 20 20 21 21 22 22 23 24 24 25 26 26 26 26 27 27 28 29 29 29 29 30 30 30 30 31 31 31 31 31 31 32 32 32 32 32 32 32 32
20 20 20 20 20 21 22 23 23 24 24 24 25 26 26 26 26 26 27 27 28 29 29 29 29 29 29 29 30 30 30 30 30 31 31 32 32 32 32 32 32 32 32
19 19 20 21 22 23 23 23 23 24 24 25 25 25 26 26 26 26 26 27 27 28 28 28 28 28 28 29 29 29 29 29 30 31 31 31 31 31 31 31 31 31 31
19 20 20 20 21 21 22 22 23 23 24 24 24 25 26 26 26 26 26 27 27 27 27 27 28 27 27 27 27 28 29 29 30 31 31 30 30 30 30 30 30 30 31
19 20 20 20 20 21 22 22 23 23 23 24 24 25 25 25 25 26 26 26 26 26 26 26 26 26 26 27 27 28 29 30 31 31 30 29 29 29 29 29 29 29 29

GEFSGL_500_meanwind_234.txt.gz
Wind_Speed
14 14 15 14 13 13 12 12 12 12 13 13 13 14 13 12 12 12 12 13 13 14 14 14 15 16 16 16 17 17 18 18 18 18 18 19 20 20 20 21 21 20 21
15 15 15 14 14 14 13 13 13 13 14 14 14 14 13 13 13 14 14 14 15 15 15 15 15 16 16 17 18 18 19 19 19 19 19 20 21 21 22 22 21 21 22
16 16 16 15 15 15 14 15 15 15 15 15 15 14 14 14 14 15 16 17 17 17 17 17 17 18 18 19 19 20 20 21 21 22 22 22 22 23 23 23 24 24 24
17 17 17 17 16 16 16 17 17 18 18 17 16 14 14 15 16 17 18 19 19 18 18 19 19 19 19 20 20 21 22 22 23 23 24 24 24 24 24 25 25 26 26
19 19 18 18 18 18 18 18 19 19 18 18 16 15 15 16 17 18 19 20 20 19 19 20 20 21 21 21 21 22 23 24 25 25 25 26 26 26 26 27 28 28 28
19 20 20 19 19 19 20 20 19 19 19 18 17 17 17 18 19 20 21 21 21 21 21 21 21 22 22 22 23 24 25 25 26 27 27 27 27 28 28 28 28 29 29
21 21 21 20 20 20 20 21 21 20 19 19 20 20 19 20 21 22 22 22 23 23 22 23 23 24 24 24 25 26 27 27 28 28 28 29 29 29 29 30 30 30 30
23 23 23 22 22 22 22 22 22 22 21 20 20 20 20 21 23 23 24 24 25 25 25 25 25 26 27 27 27 27 28 28 29 30 30 30 31 31 30 31 31 31 31
23 23 23 23 23 24 24 23 23 22 22 22 21 21 22 22 23 24 25 26 26 26 26 27 27 28 27 27 28 29 29 30 30 31 31 32 32 32 32 32 32 32 31
24 24 25 25 25 25 25 24 23 23 23 23 23 23 23 24 24 25 27 27 27 27 28 28 28 29 29 29 29 30 31 30 31 31 32 32 33 33 33 33 32 32 32
25 26 26 27 27 27 26 24 24 24 24 24 24 24 24 25 25 26 27 27 27 28 28 28 29 29 29 29 30 30 31 31 31 31 32 32 32 32 33 33 33 33 33
27 27 27 27 27 27 27 25 24 25 24 24 24 25 25 25 26 26 27 28 28 29 29 29 29 29 29 29 30 30 30 30 30 31 32 32 32 32 32 33 32 33 33
27 27 27 27 26 26 26 25 24 24 24 24 25 25 25 25 25 25 26 27 27 28 29 28 28 29 29 30 30 30 30 29 30 31 31 31 31 31 32 32 32 32 33
26 26 26 26 25 25 25 24 22 23 24 25 26 26 26 26 26 26 27 27 28 29 29 28 29 29 30 30 30 29 29 29 30 30 30 30 30 31 31 32 32 33 33
25 26 26 26 26 26 25 23 23 23 24 25 26 26 25 25 26 26 26 27 28 29 29 29 29 30 30 30 29 29 30 30 30 30 30 30 31 31 31 32 32 33 34
26 26 26 26 26 26 25 25 24 25 25 25 25 25 25 26 27 27 28 28 29 29 30 30 30 30 30 30 30 30 30 31 31 30 30 30 31 32 32 33 33 34 35
26 27 27 27 26 26 25 25 25 25 25 24 24 25 26 27 27 28 29 29 29 30 30 30 30 30 30 31 30 30 30 30 30 30 31 32 32 33 33 34 34 34 35
27 27 26 26 25 25 25 24 23 23 23 24 25 26 27 27 28 28 29 30 30 30 30 30 30 31 30 30 30 30 30 30 30 31 32 33 33 33 33 34 34 34 34
27 26 25 24 24 23 23 22 22 23 23 25 26 26 27 28 29 29 30 30 30 30 30 30 30 30 29 30 30 30 30 31 32 32 33 33 33 33 33 33 33 33 33
26 25 24 24 23 23 23 23 23 23 24 25 26 26 27 28 28 28 29 29 30 30 30 30 30 30 30 30 30 30 31 31 32 32 32 32 32 32 32 32 33 33 33
24 23 23 23 23 23 23 23 24 24 24 25 26 26 27 27 27 27 28 29 29 30 30 30 30 30 30 30 30 31 31 31 32 32 31 31 31 31 32 32 33 33 33
23 23 23 23 22 22 23 23 24 24 24 25 26 26 26 27 28 28 29 30 30 30 30 30 30 30 30 29 29 30 31 31 31 31 30 31 31 31 32 32 32 32 32
23 23 22 22 22 22 22 23 23 24 25 25 26 26 27 28 29 29 29 30 30 30 30 30 30 29 29 29 29 29 30 30 30 30 30 31 31 31 31 32 32 31 31
21 21 21 21 21 22 23 23 24 24 25 25 26 27 27 28 28 29 29 29 29 30 29 29 29 29 29 29 29 29 29 29 29 30 30 30 30 31 31 30 31 31 31
20 20 20 20 20 21 22 23 23 24 24 25 25 26 27 27 28 28 29 29 29 29 29 29 29 29 29 29 29 29 29 29 30 30 30 30 30 30 30 30 30 30 31
20 20 20 21 21 22 22 22 22 23 24 25 25 26 26 27 27 28 28 29 29 29 29 29 28 28 28 29 29 29 29 30 31 30 30 30 31 31 31 30 30 30 30

GEFSGL_500_meanwind_240.txt.gz
Wind_Speed
10 10 10 10 10 11 11 12 12 12 12 12 12 11 10 10 10 10 11 11 10 10 11 12 13 13 14 14 15 15 15 15 16 16 16 17 18 19 19 20 20 20 21
11 11 11 11 11 11 12 12 13 13 13 13 13 12 11 11 10 11 12 12 11 12 13 14 15 15 15 15 16 17 17 17 18 18 19 19 20 20 20 21 21 22 23
12 12 12 12 12 12 13 13 13 13 13 14 14 14 13 13 13 13 13 14 13 14 15 15 16 17 17 18 18 18 18 19 19 20 20 20 21 21 22 22 22 23 24
13 13 13 13 14 14 14 14 14 15 15 15 15 16 16 16 15 15 15 16 15 16 17 18 18 19 19 20 20 20 20 20 21 21 21 22 23 23 23 24 24 25 25
14 14 14 13 14 14 15 16 16 16 16 16 17 18 18 17 17 17 17 18 18 18 19 19 20 20 21 21 20 21 21 22 23 24 24 25 26 26 25 25 25 26 27
15 14 14 14 14 15 16 16 17 17 17 17 18 18 18 17 18 19 19 20 20 20 21 21 21 22 21 22 22 23 23 24 25 25 26 27 27 27 27 27 27 28 28
16 15 15 15 16 17 17 17 18 18 18 18 18 18 18 18 19 19 20 21 21 21 22 23 23 23 23 23 24 24 25 25 26 26 27 27 27 28 28 28 29 30 30
18 17 17 18 18 19 18 19 19 19 18 18 18 19 19 19 20 21 21 22 22 22 22 23 23 23 24 25 25 25 26 26 27 28 28 28 28 29 29 29 29 30 30
19 19 19 19 19 19 19 20 20 20 19 19 20 20 19 20 21 22 22 22 22 22 22 23 24 25 25 26 26 27 27 27 28 28 28 29 29 29 30 30 30 30 31
21 20 20 19 19 20 20 20 20 20 20 20 20 20 21 21 22 22 23 23 23 22 22 23 24 25 25 26 27 27 27 28 28 28 28 29 29 29 29 29 30 30 31
22 22 21 21 21 21 21 21 21 21 21 21 21 22 23 23 23 23 23 23 22 22 23 24 25 25 26 27 27 27 27 28 28 28 29 29 29 29 30 30 30 30 31
22 22 22 22 22 22 21 22 22 22 22 22 23 23 25 25 24 23 23 23 23 23 23 24 25 26 27 26 27 27 28 28 28 29 30 30 30 30 30 31 31 31 31
22 22 22 22 22 22 22 23 23 23 23 23 24 24 24 24 24 23 23 23 23 23 24 25 26 26 26 27 28 28 29 29 30 30 31 31 31 31 31 31 31 32 32
23 22 22 22 23 23 23 23 23 24 24 24 24 24 25 24 23 23 23 22 23 24 25 26 26 27 27 27 28 29 30 30 31 31 31 31 31 31 31 31 31 32 32
23 23 23 23 23 24 24 24 24 24 25 25 25 25 25 25 24 23 22 23 24 25 25 26 27 27 28 28 29 30 30 30 30 31 31 31 31 31 31 32 32 33 33
24 23 23 23 23 23 24 24 24 24 24 25 24 24 25 24 24 23 24 24 25 25 26 26 27 28 28 29 29 30 31 31 31 30 30 30 31 31 32 32 32 32 32
24 24 23 23 24 24 24 24 23 23 23 23 23 24 24 23 23 23 24 24 25 26 26 27 27 28 29 29 30 31 31 31 31 31 31 32 32 32 32 31 32 32 32
24 24 24 24 25 24 24 23 22 22 22 22 22 22 23 23 22 23 24 24 25 26 26 27 28 29 29 30 30 31 32 31 31 31 32 32 32 31 31 31 31 32 32
24 24 24 24 24 23 23 22 22 22 22 22 22 22 22 23 23 24 24 25 26 27 27 29 29 29 30 30 31 32 32 32 32 31 31 31 31 31 31 31 31 32 32
24 24 23 23 23 22 22 22 22 22 22 22 23 23 23 24 24 24 25 26 27 28 29 29 30 30 30 31 31 32 32 32 31 31 31 30 30 30 30 31 32 32 32
24 23 23 23 22 22 22 23 23 23 23 23 23 24 24 24 24 25 26 28 28 28 29 29 30 30 31 31 31 31 31 31 30 29 28 29 29 30 30 31 31 32 32
24 23 23 22 23 23 23 23 23 24 24 23 23 23 24 24 25 26 27 27 28 29 30 30 30 30 30 29 30 30 29 29 29 29 29 29 29 29 29 30 31 31 31
23 23 23 23 23 23 23 23 23 23 23 23 23 24 24 25 26 27 27 28 29 29 29 29 29 28 28 29 29 29 28 28 28 29 29 29 29 29 30 30 30 30 30
23 23 23 23 22 22 23 24 24 24 24 24 25 25 26 26 27 27 28 29 29 28 28 28 27 27 27 28 27 28 28 29 29 29 29 30 30 30 30 30 31 31 30
23 23 23 22 22 22 23 23 24 24 24 25 25 25 26 26 27 28 28 28 28 27 27 27 27 27 27 27 28 28 29 29 29 29 30 30 30 30 30 30 30 30 30
22 22 22 22 22 22 22 22 22 23 23 24 25 26 26 27 28 28 28 28 27 27 27 27 27 28 28 29 29 29 29 29 29 29 29 30 30 30 30 30 30 30 30

GEFSGL_500_meanwind_246.txt.gz
Wind_Speed
11 10 11 11 11 12 12 12 12 13 13 13 13 13 13 13 13 13 13 13 13 14 14 14 14 14 14 15 15 16 16 16 17 18 19 20 20 21 22 22 22 22 22
13 12 12 12 12 12 13 13 13 14 14 15 15 15 15 14 14 14 15 15 14 15 15 15 15 16 16 16 17 18 18 18 19 20 20 21 22 22 22 23 24 24 24
13 13 13 13 13 14 14 15 15 15 16 16 16 16 15 15 16 16 17 17 16 16 17 17 18 18 19 19 20 21 21 21 21 21 22 22 23 24 24 25 25 26 26
13 13 13 14 15 16 15 16 16 17 17 16 15 16 16 17 17 18 19 19 18 19 19 20 20 21 21 22 22 23 23 23 23 23 23 24 24 25 25 26 27 28 28
14 14 15 15 15 17 17 17 17 16 16 16 16 17 18 18 18 19 19 19 19 20 21 22 22 22 23 23 24 24 24 24 24 24 24 24 25 25 26 27 29 29 30
15 15 16 16 16 17 18 18 18 16 16 16 17 18 18 19 19 20 20 20 20 20 21 21 22 23 24 24 24 23 23 24 24 25 25 25 26 27 27 29 30 30 31
16 16 17 17 18 18 19 20 19 18 17 17 18 18 19 20 21 21 20 20 21 21 22 22 23 24 24 24 24 24 24 24 25 25 25 26 27 28 29 29 30 31 31
18 18 18 18 18 19 19 20 20 20 18 18 19 19 20 20 20 20 21 22 23 22 22 23 24 24 24 24 25 24 25 26 26 27 27 28 29 29 30 30 30 31 31
20 19 19 20 20 20 20 20 19 20 20 20 20 20 20 21 22 22 23 23 23 24 24 24 24 25 25 25 24 25 26 26 27 27 28 28 29 30 30 31 31 32 32
21 21 21 21 21 22 22 22 21 21 21 20 20 21 22 23 24 24 24 25 26 25 25 24 24 25 25 25 25 26 26 27 28 28 29 29 30 30 31 31 31 32 32
22 22 23 23 23 23 23 22 22 22 22 22 22 23 24 25 25 25 26 27 26 25 25 24 24 25 25 25 26 26 27 28 28 29 29 30 30 31 32 32 32 32 32
22 22 23 23 23 23 23 23 22 23 23 24 24 24 25 26 26 26 26 27 26 25 24 24 24 25 26 27 27 27 28 28 29 29 30 30 31 32 32 32 33 33 33
22 23 23 22 22 22 23 23 23 24 24 25 25 26 26 26 26 26 26 26 26 25 25 25 25 26 26 27 27 28 28 28 29 30 30 31 31 32 32 33 33 34 34
23 23 23 23 23 23 24 24 24 25 25 26 26 26 26 26 26 26 26 26 26 25 25 25 25 26 27 28 28 28 29 29 30 31 31 31 32 32 33 33 33 33 34
24 24 24 24 24 24 24 25 25 25 25 25 25 26 26 26 27 27 26 26 25 25 25 25 26 27 28 29 29 29 30 30 31 31 31 31 32 32 33 33 34 34 34
24 25 25 25 25 26 26 26 25 26 26 25 26 26 26 26 26 26 26 26 25 25 25 25 26 27 28 29 29 30 30 31 31 31 31 31 32 32 33 33 33 33 34
24 25 25 25 25 25 26 26 25 25 25 25 25 26 26 26 27 26 26 25 25 25 26 26 27 28 29 30 30 30 30 30 30 31 31 32 32 33 33 33 33 33 33
25 25 25 25 25 25 26 25 25 25 25 25 25 26 26 26 26 26 26 26 26 27 27 28 29 30 30 30 30 30 30 30 30 31 32 32 33 33 33 32 33 33 33
25 25 25 25 25 25 25 25 25 25 26 26 26 26 26 25 26 26 26 26 26 26 27 28 29 30 30 30 30 30 30 30 31 31 32 32 32 32 32 32 32 32 32
25 24 24 24 24 25 25 25 25 25 25 26 25 25 25 25 25 25 26 26 27 27 28 29 30 30 31 31 30 30 30 30 31 31 31 31 31 32 32 32 32 32 32
24 23 23 24 24 24 25 25 25 25 25 25 26 25 26 26 26 26 27 27 27 28 29 29 30 30 30 29 29 29 30 30 30 30 31 31 32 32 32 32 32 32 32
23 23 23 24 24 24 24 24 24 25 24 24 25 25 26 26 27 27 27 28 28 28 29 29 29 29 29 29 29 30 30 30 29 30 30 31 32 32 32 32 32 32 32
23 23 23 23 24 24 24 24 25 24 24 24 26 26 26 26 27 27 28 28 29 29 29 30 30 30 29 29 29 29 29 29 30 30 31 31 32 32 32 32 32 32 31
22 22 23 23 24 24 25 25 25 25 25 26 26 27 27 28 28 28 28 29 29 29 29 30 30 29 28 29 29 29 29 30 30 31 31 32 32 33 33 32 32 32 31
22 22 23 23 24 24 24 25 25 25 26 26 27 27 28 28 28 28 28 29 29 29 29 29 29 29 28 29 29 29 30 31 31 32 32 32 32 32 32 32 32 31 31
21 22 23 23 23 23 23 24 24 25 25 26 26 27 27 27 27 28 28 28 28 27 28 28 29 29 29 29 29 30 30 31 31 31 31 32 32 32 32 32 31 31 30

GEFSGL_500_meanwind_252.txt.gz
Wind_Speed
11 12 12 12 12 12 11 11 10 11 11 11 11 11 11 12 12 12 13 13 13 15 15 15 15 15 15 16 16 15 15 16 17 18 19 19 20 21 21 21 21 22 22
12 13 13 13 12 11 11 11 11 11 12 12 12 12 13 13 13 14 14 14 15 16 17 17 18 18 18 18 17 17 18 19 19 20 20 21 21 22 22 22 22 23 24
13 14 14 14 12 11 11 12 12 13 14 14 14 14 14 14 14 15 15 16 16 17 18 19 19 19 19 19 19 19 20 21 22 22 22 22 23 23 23 24 24 24 24
13 14 14 14 13 12 12 13 14 15 15 16 16 16 15 15 15 15 15 16 17 17 18 18 18 19 19 20 20 20 21 22 23 24 24 23 23 24 24 24 24 24 25
14 14 15 16 15 14 14 15 15 16 16 17 17 17 16 16 16 17 17 17 18 18 19 19 19 20 20 21 21 22 23 23 23 24 24 24 24 24 24 25 25 26 26
16 16 16 17 17 16 16 16 17 17 18 18 18 18 18 17 18 18 18 19 19 19 19 19 20 20 21 22 22 23 23 23 23 24 24 24 24 25 25 25 26 27 27
17 18 18 18 19 19 18 18 19 19 19 19 18 19 19 19 18 18 17 18 19 19 19 20 20 21 22 22 23 23 23 24 24 25 25 24 25 26 26 27 27 28 28
20 20 20 20 20 21 20 20 20 20 20 20 20 20 20 20 19 19 19 20 21 21 22 22 23 23 23 24 23 23 24 24 25 25 25 25 26 27 28 28 29 29 30
22 21 21 21 21 22 21 21 21 21 21 21 21 21 21 20 20 21 21 22 22 23 24 24 25 24 24 25 25 25 25 25 25 25 25 26 26 27 27 28 29 30 30
22 22 22 23 22 22 22 22 22 22 22 21 21 21 21 21 21 22 22 23 24 24 25 25 25 25 25 26 26 25 25 25 26 26 26 27 27 27 28 29 29 30 31
24 24 24 24 23 23 24 24 23 23 22 22 21 21 22 22 23 23 24 25 25 26 25 26 26 26 26 27 26 25 25 26 27 27 28 28 28 29 29 30 30 30 31
23 24 24 23 23 24 24 24 24 23 23 23 22 22 22 23 24 25 26 26 26 26 27 27 27 27 27 26 26 25 25 26 27 27 27 27 28 29 29 30 31 31 32
22 23 24 23 23 23 23 23 23 23 23 22 22 22 23 23 24 25 25 26 26 27 27 27 27 27 26 26 26 26 25 25 26 27 27 28 28 29 29 30 31 31 32
22 23 23 22 22 22 22 22 22 22 22 23 23 24 24 25 25 25 26 26 27 27 27 28 27 26 26 26 26 26 25 25 26 27 28 29 29 30 30 30 31 31 32
23 23 23 23 23 23 23 22 22 23 23 24 24 25 25 25 25 26 26 26 27 27 27 27 27 26 26 26 27 27 26 27 28 29 30 30 30 30 31 31 31 32 32
24 24 24 24 24 23 23 23 23 23 24 24 25 25 25 26 26 26 26 27 27 27 27 27 27 27 27 27 27 27 28 28 29 29 30 30 31 31 32 32 32 32 32
25 25 24 24 24 24 24 24 24 24 25 25 25 26 26 27 27 27 27 27 27 27 27 27 27 27 28 28 27 28 29 30 30 30 31 31 32 32 32 32 32 32 32
26 25 24 24 25 25 25 25 25 24 25 25 26 27 27 27 27 27 27 27 27 27 27 27 28 28 28 28 29 30 30 31 31 31 31 32 32 32 32 32 32 32 31
27 25 25 25 25 26 25 24 24 25 26 26 26 26 27 27 26 26 27 27 27 27 27 27 28 28 29 29 30 31 31 31 31 31 31 31 31 31 31 32 32 32 32
27 26 26 25 25 25 25 25 25 26 26 27 27 27 26 26 26 26 27 27 27 28 28 28 28 29 30 30 30 31 31 31 31 31 31 31 31 32 32 32 33 33 32
27 27 26 25 25 25 25 26 26 26 27 27 27 26 26 26 26 26 27 28 28 29 29 29 29 30 30 30 30 31 31 32 31 31 31 31 32 32 32 32 33 33 32
28 27 27 26 26 26 26 26 26 26 26 26 26 26 26 26 27 27 27 28 28 28 28 29 30 30 30 30 31 31 31 31 30 30 31 32 31 31 32 32 32 32 32
27 27 27 27 26 26 26 26 26 26 26 26 25 25 26 26 26 27 27 27 28 28 28 29 30 31 31 31 31 30 30 30 30 31 32 32 32 32 32 31 31 32 32
27 27 27 26 25 25 25 25 26 26 26 25 25 25 26 26 27 27 27 27 27 28 29 29 30 29 29 30 30 30 30 31 31 31 31 31 31 31 31 31 31 30 30
25 25 25 25 25 25 25 25 24 24 24 24 25 25 25 26 26 27 27 27 28 28 28 28 28 29 29 29 29 29 30 30 30 30 30 30 30 30 30 30 30 29 29
25 24 25 25 24 24 24 24 23 23 23 24 24 25 25 26 26 27 27 27 28 28 28 28 28 28 28 28 28 28 29 29 29 29 29 29 29 29 29 29 29 28 28

GEFSGL_500_meanwind_258.txt.gz
Wind_Speed
11 11 12 12 12 13 13 13 13 13 13 13 13 13 14 14 15 15 16 16 16 16 15 15 16 17 17 18 18 18 17 17 17 18 19 20 20 20 20 20 20 20 21
12 12 13 13 13 13 13 13 14 14 14 14 15 15 16 16 17 17 18 17 17 17 17 17 17 17 18 18 18 18 18 18 18 19 21 21 21 21 21 22 22 22 22
12 13 13 14 14 14 14 14 14 15 15 15 16 16 17 17 18 18 18 19 19 17 17 17 17 18 18 18 18 18 19 19 20 20 21 21 22 23 24 24 25 24 24
14 14 14 15 15 15 15 15 15 16 16 16 17 17 18 18 19 19 19 19 19 18 18 18 18 18 18 18 19 19 20 20 20 21 21 22 23 24 25 25 26 26 26
16 16 16 16 17 16 16 16 16 16 17 17 18 18 19 19 20 19 19 19 18 18 19 19 19 19 19 19 20 20 21 21 21 21 22 23 24 24 25 24 25 25 26
17 17 17 18 18 19 18 18 19 19 19 19 19 20 20 20 20 20 20 19 19 19 19 19 19 20 20 21 21 21 22 22 22 22 23 24 25 25 25 25 25 25 26
19 19 19 20 20 20 20 21 21 21 21 22 22 21 21 20 20 20 20 19 20 20 20 20 20 21 21 22 22 23 23 23 23 23 24 24 25 26 26 26 26 27 28
22 22 22 21 22 22 22 22 22 23 22 22 23 22 22 22 21 21 20 20 21 20 21 21 22 22 23 23 23 24 24 25 25 25 25 25 26 27 27 27 27 28 29
23 23 23 23 23 23 23 23 24 23 23 23 23 22 22 22 21 22 21 21 21 21 22 22 23 24 24 24 24 24 25 26 26 26 26 26 26 27 27 27 28 28 29
23 24 24 24 24 24 25 25 25 25 24 24 23 22 22 22 22 23 23 23 23 23 23 24 24 25 25 25 26 26 26 27 27 27 27 27 27 28 28 28 28 30 31
24 24 25 25 25 25 25 25 26 26 25 25 24 24 23 23 23 23 24 24 24 24 25 25 25 26 26 26 27 27 27 27 27 28 27 28 28 29 29 29 30 31 32
25 25 25 25 25 25 26 26 26 25 25 25 24 24 24 24 24 24 25 26 26 26 26 26 26 26 27 27 27 27 28 27 28 28 28 28 28 28 29 30 31 32 32
26 26 26 26 26 26 26 26 26 25 25 25 24 24 24 24 25 25 26 27 27 27 27 27 27 27 27 27 28 28 28 28 28 29 29 29 29 29 30 30 31 32 32
26 26 26 27 27 27 27 26 26 26 26 26 25 25 24 25 25 26 27 27 27 28 28 28 28 28 28 28 28 27 27 27 28 28 29 29 30 30 30 30 31 31 32
27 28 28 28 28 28 28 28 27 26 26 27 27 27 27 27 27 27 28 28 28 28 28 28 28 28 28 28 28 28 27 28 28 28 29 30 31 31 32 32 32 32 33
28 29 29 29 29 29 29 28 27 27 27 27 28 28 28 28 28 28 29 29 29 29 29 29 29 29 29 29 29 28 28 28 29 29 30 31 31 32 33 33 33 33 34
29 29 29 29 29 29 29 28 27 26 27 27 28 28 28 28 29 29 29 29 30 30 30 30 29 29 29 29 29 28 29 29 29 30 30 31 32 33 33 34 34 34 33
29 29 29 29 29 29 29 28 27 27 27 27 28 28 28 29 29 30 29 29 30 30 30 30 30 29 30 30 30 30 30 31 30 31 31 32 33 34 35 35 35 35 35
30 30 30 30 30 30 29 29 28 27 28 28 29 28 28 29 29 30 30 30 30 30 30 30 30 30 30 30 31 31 32 32 32 33 33 34 34 34 35 35 35 35 34
31 31 31 30 30 29 29 29 28 28 29 29 29 29 29 29 29 30 30 30 30 30 30 30 31 31 31 31 31 32 32 32 33 34 34 35 35 35 35 35 35 34 34
31 31 31 31 30 30 29 29 29 29 30 29 29 29 29 29 30 30 30 30 30 30 30 30 31 31 31 31 32 32 32 33 33 34 35 35 35 35 35 35 35 34 34
31 31 31 30 30 30 31 31 31 31 31 30 29 29 30 30 30 30 30 30 30 30 31 31 31 32 32 32 33 33 33 33 34 34 35 35 35 35 35 34 34 34 33
31 31 30 29 30 30 31 31 31 32 31 30 30 30 30 30 29 29 29 29 30 30 31 32 33 33 33 33 33 33 33 34 34 35 34 34 34 33 34 33 33 32 31
30 29 29 29 29 29 30 30 30 30 30 29 29 29 29 29 29 29 29 30 31 31 32 33 34 33 33 33 32 33 33 34 34 34 34 33 32 32 32 32 31 31 30
28 28 28 28 28 29 29 29 29 29 29 28 28 28 29 29 29 30 30 30 31 31 32 33 33 33 32 32 32 32 32 33 32 33 32 31 31 31 30 30 30 30 30
26 27 28 29 29 29 29 29 29 29 29 29 28 29 29 29 29 29 30 30 30 31 32 32 31 31 31 31 31 30 31 31 31 31 31 31 30 30 30 30 30 30 31

GEFSGL_500_meanwind_264.txt.gz
Wind_Speed
8 9 9 8 9 9 9 9 9 9 10 10 10 11 11 11 12 12 13 14 14 15 15 15 15 14 14 14 14 14 15 15 16 17 18 18 19 18 19 19 19 19 20
9 10 10 9 9 10 10 10 10 11 11 12 12 12 12 13 13 14 15 16 16 16 15 16 15 14 15 15 15 15 16 16 16 16 17 17 18 18 19 19 20 21 21
10 10 10 10 11 11 11 11 11 12 12 12 13 13 14 14 15 16 17 17 17 16 15 15 14 14 14 15 15 16 16 16 17 17 17 18 19 19 20 20 20 22 23
11 11 11 12 12 12 12 12 12 12 12 13 13 14 15 16 16 16 17 17 17 16 15 14 13 13 14 14 15 16 17 17 18 18 19 19 20 20 21 21 22 23 24
12 13 13 13 12 13 13 13 13 13 14 14 14 15 16 16 17 17 17 17 17 17 16 15 14 14 14 15 16 17 17 18 18 19 19 19 19 20 21 22 22 22 24
14 14 14 14 14 14 14 14 14 14 15 15 15 16 17 18 19 18 17 17 17 17 16 15 15 15 16 17 18 18 19 18 19 19 19 19 20 21 22 22 23 24 24
16 15 15 16 16 16 15 15 16 16 16 17 17 18 18 19 19 18 18 18 17 17 16 17 17 17 17 18 19 19 19 19 20 21 20 21 21 21 22 23 24 24 25
17 17 17 17 17 17 17 17 17 18 18 18 18 18 19 19 19 19 18 18 18 18 18 18 19 19 20 20 20 19 19 20 21 22 22 22 22 23 24 25 25 25 27
20 19 19 18 18 18 18 19 19 19 19 19 19 19 20 20 20 19 20 20 19 19 19 19 20 20 21 21 21 20 21 22 23 22 22 23 23 24 25 25 26 26 27
21 21 21 20 19 19 20 20 20 20 21 21 21 21 20 20 21 21 21 21 21 21 21 20 20 21 21 21 21 21 22 22 23 23 23 24 25 25 26 26 26 26 27
23 22 21 21 21 21 21 22 21 21 21 22 22 22 22 21 22 22 22 22 22 22 21 21 21 21 21 22 22 22 23 23 23 24 25 26 26 26 26 26 26 27 27
24 23 22 22 22 22 22 22 22 22 23 23 23 23 22 22 21 22 22 23 23 22 22 22 22 21 22 22 23 24 24 24 25 25 26 26 25 26 27 28 28 28 28
25 24 23 23 24 24 24 23 24 24 24 24 24 24 23 23 23 23 23 23 23 23 23 23 23 23 23 23 24 25 25 26 26 27 27 27 27 28 29 29 29 29 30
25 25 25 26 26 25 25 25 25 25 25 25 25 24 24 24 24 24 25 24 24 24 24 24 24 24 24 24 25 26 27 27 27 27 28 28 29 29 29 29 29 30 30
27 27 27 27 26 26 26 27 26 25 25 25 25 25 25 25 25 26 25 25 25 25 25 25 25 24 25 25 26 27 27 27 28 28 29 29 29 29 30 31 31 31 31
28 28 28 28 27 27 26 27 27 26 26 26 26 26 26 26 27 27 26 26 26 25 25 25 25 25 26 26 26 27 27 28 28 29 29 29 29 30 31 31 32 32 32
28 28 29 29 28 27 27 27 27 26 26 27 27 27 27 28 28 28 27 27 27 26 26 26 26 26 27 27 27 27 27 28 29 29 30 30 31 31 31 31 32 32 32
30 29 29 29 29 29 28 28 27 27 26 27 28 28 29 29 29 29 28 28 27 28 28 27 27 27 27 27 27 27 28 29 29 30 30 31 32 32 33 33 33 33 32
31 31 30 30 29 29 29 28 28 28 28 28 28 29 29 29 29 29 29 28 28 28 28 27 27 27 28 28 28 28 29 29 29 30 31 32 32 32 33 33 33 32 32
32 32 32 31 31 31 30 29 29 29 29 29 29 29 29 29 30 30 30 29 28 27 27 27 28 28 29 29 29 29 29 30 30 31 31 31 32 32 32 32 32 32 31
32 32 32 31 31 31 30 30 30 30 29 29 30 30 30 30 30 30 29 29 28 28 28 28 28 28 29 30 30 30 30 30 31 31 32 32 31 31 31 31 31 31 31
32 32 31 31 31 31 31 31 31 30 29 29 29 29 30 29 29 28 28 28 28 28 28 29 29 29 30 30 30 30 31 31 32 33 33 33 33 33 32 31 30 30 30
31 31 31 31 30 30 30 30 30 29 30 30 29 29 28 28 28 28 28 28 29 29 29 30 30 30 30 30 31 31 31 32 32 33 34 34 34 33 32 31 30 30 29
30 29 30 30 30 30 29 29 29 28 28 28 28 28 28 28 28 27 27 28 29 29 29 30 30 30 30 30 31 31 32 32 33 33 33 33 32 32 31 31 30 29 29
30 30 30 29 29 29 28 28 28 28 28 27 27 27 28 28 27 26 27 27 28 29 29 29 29 30 29 30 31 31 31 31 32 32 32 32 31 30 30 29 29 29 29
28 28 28 28 27 27 27 27 27 28 28 28 27 27 27 26 26 26 27 27 28 28 28 28 29 29 28 29 29 30 30 30 30 30 29 30 30 29 29 28 28 28 29

GEFSGL_500_meanwind_270.txt.gz
Wind_Speed
7 7 8 8 8 7 7 7 8 8 9 9 10 10 10 11 12 12 13 14 14 14 15 15 15 16 16 17 17 17 16 17 17 18 18 17 18 19 20 20 21 20 21
7 8 8 9 9 9 8 8 9 9 10 10 11 11 12 12 13 13 14 14 15 16 16 16 16 16 16 16 17 17 16 17 17 18 19 19 19 19 20 20 21 21 22
8 9 9 10 9 9 10 10 11 11 11 11 11 12 13 13 14 14 14 15 15 16 16 17 16 17 17 17 17 17 16 17 17 18 19 20 21 21 21 21 22 23 24
10 10 10 11 11 11 11 11 12 12 12 12 13 13 14 15 15 15 16 16 16 17 17 17 16 16 17 17 17 18 18 19 19 20 21 21 21 21 22 22 23 24 24
11 12 12 12 12 13 13 13 12 13 13 14 14 15 15 16 16 16 16 17 18 18 18 17 17 17 17 18 19 20 20 20 21 21 21 22 22 22 22 23 23 24 24
14 14 14 14 14 15 14 14 14 14 15 15 16 16 17 17 18 18 17 18 18 18 19 19 18 18 18 19 20 21 21 21 21 22 23 23 23 22 22 22 23 24 25
16 16 16 16 16 16 16 16 16 16 17 17 18 18 18 18 18 19 19 19 19 19 20 20 20 20 20 20 20 21 22 22 22 22 23 22 22 22 23 24 24 24 25
18 18 18 18 18 18 18 17 17 18 18 19 19 20 20 20 20 20 20 19 19 20 20 21 21 21 21 21 21 22 22 22 22 23 22 22 23 23 24 25 25 25 26
21 20 20 19 19 19 18 18 19 19 20 20 21 21 21 21 21 21 21 21 20 21 21 22 22 22 22 22 22 23 22 22 23 23 23 23 24 24 25 25 26 26 27
23 22 22 21 21 21 20 21 21 21 22 22 22 22 21 21 21 22 22 21 21 22 22 22 21 22 22 23 23 24 24 24 24 24 24 25 25 25 25 26 27 28 28
24 24 24 24 24 23 22 23 23 23 23 24 24 24 24 23 22 22 22 22 22 22 22 22 22 22 23 24 24 24 24 25 25 25 25 25 26 26 26 26 27 28 29
24 25 25 25 25 24 24 25 25 25 25 25 24 24 24 24 23 23 23 22 22 22 22 22 23 24 25 25 25 25 25 26 26 27 27 27 27 27 28 29 30 31 31
25 26 26 26 26 26 26 27 26 26 26 26 25 25 26 25 25 24 23 22 23 23 23 23 24 25 26 26 26 26 26 27 27 28 28 28 28 29 29 30 31 32 32
26 26 27 28 27 27 28 28 28 27 28 27 26 26 26 26 25 24 24 24 24 24 24 25 25 26 27 27 27 27 27 28 28 29 29 29 30 30 30 30 31 31 32
28 28 29 29 29 29 28 28 28 28 28 27 26 26 26 26 25 25 25 25 25 26 26 26 27 28 28 28 27 28 28 28 29 30 30 30 31 31 31 31 31 31 32
30 31 31 31 31 30 28 28 28 28 28 27 27 27 26 26 25 25 26 27 28 28 28 28 28 28 28 28 28 28 29 29 30 30 30 31 31 32 31 32 32 32 32
30 30 30 30 29 30 30 28 28 28 28 28 26 26 26 26 26 27 28 28 29 29 28 28 29 29 29 28 28 29 29 30 30 30 31 31 31 31 31 32 32 32 32
29 29 29 29 29 29 29 29 29 29 28 28 28 27 27 27 27 28 29 29 30 29 29 30 29 29 29 29 29 30 30 30 30 31 32 32 32 32 32 32 32 32 32
31 30 29 29 29 30 30 30 30 29 28 29 29 28 28 29 29 29 30 30 30 30 31 30 29 29 29 29 30 30 30 30 31 32 32 33 33 33 32 32 32 32 32
32 31 30 31 30 30 30 30 30 29 29 29 30 29 29 29 30 31 31 31 31 30 29 29 29 29 29 30 30 30 30 31 32 32 33 32 32 32 33 32 32 31 31
32 31 31 31 30 30 30 30 30 30 30 30 31 31 30 30 31 31 31 30 29 29 29 29 30 30 30 30 30 31 32 32 33 33 33 32 32 32 32 32 32 31 31
32 32 31 31 31 31 31 31 31 31 31 31 32 32 31 31 31 30 30 30 29 28 28 29 30 29 30 30 31 32 32 33 33 32 32 32 32 32 32 31 30 30 30
31 31 30 31 31 31 31 31 31 32 33 33 33 32 31 31 31 30 30 29 29 29 29 29 30 30 30 31 31 32 32 32 32 31 31 31 31 31 31 30 30 30 30
30 30 30 30 31 31 32 32 32 32 32 32 32 32 31 30 30 29 29 28 28 29 30 30 30 30 30 30 30 31 31 31 31 30 30 30 29 30 30 30 29 29 29
31 32 32 32 31 31 31 31 31 31 31 31 31 31 30 30 29 29 29 29 29 29 29 29 29 29 29 29 29 30 30 30 29 29 29 29 28 28 28 29 29 29 29
31 31 31 30 30 30 30 30 30 31 31 31 31 30 29 29 29 28 28 29 29 29 28 28 29 29 29 28 28 28 28 28 28 28 28 28 28 28 29 29 29 28 28